Weather Roundup
Issued by NWS

Home | Current Version | Previous Version | Graphics & Text | Print | Product List | Glossary Off
Versions: 1 2 3 4 5 6 7 8 9 10 11 12 13 14 15 16 17 18 19 20 21 22 23 24 25 26 27 28 29 30 31 32 33 34 35 36 37 38 39 40 41 42 43 44 45 46 47 48 49 50

000
NZUS93 KARX 050159
HRRWXR

CURRENT HOURLY OBSERVATIONS ACROSS
MUCH OF THE UPPER MISSISSIPPI VALLEY
NATIONAL WEATHER SERVICE LA CROSSE WI
900 PM CDT SAT JUL 04 2015


...SOUTHEAST MINNESOTA...


CITY           SKY/WX    TMP DP  RH WIND       PRES   REMARKS
ROCHESTER      CLEAR     69  62  78 S8        29.95F
ROCHESTER/MAYO FAIR      74  62  65 S6        29.94F
WINONA         CLEAR     75  63  64 CALM      29.93S
AUSTIN         CLEAR     72  61  68 S3        29.94S
ALBERT LEA     PTCLDY    73  57  56 S5        29.93F
DODGE CENTER   CLEAR     70  63  78 S7        29.95R
PRESTON        CLEAR     69  62  77 S6        29.96F
OWATONNA       CLEAR     73  61  64 S6        29.93S
FARIBAULT      CLEAR     73  63  68 S3        29.92S
$$

...ELSEWHERE IN MINNESOTA...


CITY           SKY/WX    TMP DP  RH WIND       PRES   REMARKS
MINNEAPOLIS    CLEAR     79  63  57 S7        29.89S HAZE
INTNL FALLS    PTCLDY    67  60  78 CALM      29.84R
DULUTH         PTCLDY    63  55  75 E12       29.89F
RED WING       CLEAR     77  64  65 SW5       29.90S
REDWOOD FALLS  CLEAR     75  63  66 S10       29.87R HAZE
MANKATO        PTCLDY    73  61  64 S7        29.90S
WORTHINGTON    CLEAR     72  61  68 S8        29.91R
FAIRMONT       PTCLDY    70  57  64 S6        29.91S
$$

...SOUTHWEST WISCONSIN...


CITY           SKY/WX    TMP DP  RH WIND       PRES   REMARKS
LA CROSSE      CLEAR     75  65  70 S6        29.93S
PRAIRIE DU CHI CLEAR     73  62  69 CALM      29.96S
BOSCOBEL       CLEAR     71  65  81 CALM      29.96S
LONE ROCK      NOT AVBL
PLATTEVILLE    CLEAR     74  62  66 CALM      29.98F
FORT MC COY    CLEAR     74  63  67 CALM      29.95S
VIROQUA        FAIR      73  64  73 S3        29.98S
WIS DELLS      CLEAR     71  60  68 CALM      29.97S
$$

...ELSEWHERE IN WISCONSIN...


CITY           SKY/WX    TMP DP  RH WIND       PRES   REMARKS
MILWAUKEE      MOCLDY    71  56  58 S6        29.98S
MADISON        PTCLDY    74  62  66 SW3       29.97S
GREEN BAY      PTCLDY    69  62  78 SE6       29.97R
EAU CLAIRE     NOT AVBL
BLACK RVR FLS  FAIR      74  63  69 SW5       29.93F
MEDFORD        MOCLDY    74  64  73 S6        29.95S HAZE
WAUSAU         PTCLDY    76  64  66 CALM      29.94S HAZE
WIS RAPIDS     PTCLDY    73  63  70 S5        29.97R
MARSHFIELD     CLEAR     73  62  68 SW3       29.95S HAZE
RICE LAKE      CLEAR     74  65  73 S5        29.93S HAZE
$$

...NORTHEAST IOWA...


CITY           SKY/WX    TMP DP  RH WIND       PRES   REMARKS
DECORAH          N/A    N/A N/A N/A MISG        N/A
MASON CITY     PTCLDY    67  62  84 S7        29.95F
CHARLES CITY   CLEAR     70  64  83 S6        29.96S
OELWEIN        CLEAR     70  64  83 S6        29.97F
$$

...ELSEWHERE IN IOWA...


CITY           SKY/WX    TMP DP  RH WIND       PRES   REMARKS
DES MOINES     MOCLDY    76  60  57 SE6       29.94S
IOWA CITY      CLEAR     71  63  75 SE3       29.98S
FORT DODGE     CLEAR     73  59  60 SE3       29.94S
$$

...NORTHERN ILLINOIS...


CITY           SKY/WX    TMP DP  RH WIND       PRES   REMARKS
CHICAGO-OHARE  CLEAR     73  56  54 E8        29.99R
CHICAGO-MIDWAY CLEAR     74  57  55 E8        30.00R
MOLINE         CLEAR     69  63  81 S5        29.98S
ROCKFORD       CLEAR     72  63  73 S3        30.01R
PEORIA         CLEAR     74  61  63 CALM      30.01R
$$

NOTE: "FAIR" INDICATES FEW OR NO CLOUDS BELOW 12,000 FEET WITH NO
SIGNIFICANT WEATHER AND/OR OBSTRUCTIONS TO VISIBILITY. WIND
SPEEDS ARE IN MILES-PER-HOUR.



USA.gov is the U.S. government's official web portal to all federal, state and local government web resources and services.